Home > Weather > U.S.A. > Frankfort > Past weeks

Flag for U.S.A. Weather past 2 weeks in Frankfort, Kentucky, U.S.A.

45 °F


Feels Like: 44 °F
Forecast: 36 / 50 °F
Wind: 3 mph from Southwest

Location: Capital City Airport

Current Time: Dec 1, 2015 at 9:45:49 PM

Latest Report: Dec 1, 2015 at 8:53 PM

Visibility: 10 mi

Pressure: 29.96 "Hg

Humidity: 90%

Dew point: 42 °F

Location of FrankfortLocation

Historic Weather in Frankfort — Graph


Frankfort temperature yesterday

Maximum temperature yesterday: 50 °F (at 11:53 PM)
Minimum temperature yesterday: 41 °F (at 3:53 AM)
Average temperature yesterday: 45 °F

Past Weeks' High & Low Weather Summary

High68 °F (Nov 26, 2:53 PM)97% (Nov 29, 12:53 AM)30.55 "Hg (Nov 29, 12:53 AM)
Low20 °F (Nov 22, 11:53 PM)22% (Nov 20, 11:53 AM)29.70 "Hg (Nov 18, 3:53 PM)
Average47 °F71%30.17 "Hg
* Reported Nov 16 7:53 PM — Dec 1 7:53 PM, Frankfort, Weather by CustomWeather, © 2015

Note: Actual official high and low records may vary slightly from our data, if they occured in-between our weather recording intervals... More about our weather records


Frankfort weather history for previous 24 hours

Time TempWeatherWind HumidityBarometerVisibility
7:53 PM
Tue, Dec 1
47 °FClear.No wind86%29.94 "Hg10 mi
6:53 PM48 °FPassing clouds.3 mph83%29.94 "Hg10 mi
5:53 PM48 °FPassing clouds.No wind89%29.92 "Hg10 mi
4:53 PM50 °FSunny.3 mph83%29.90 "Hg10 mi
3:53 PM51 °FPartly sunny.6 mph86%29.90 "Hg10 mi
2:53 PM51 °FLow clouds.6 mph86%29.89 "Hg9 mi
1:53 PM51 °FMostly cloudy.6 mph92%29.89 "Hg10 mi
12:53 PM52 °FLow clouds.7 mph93%29.90 "Hg9 mi
11:53 AM53 °FCloudy.8 mph93%29.91 "Hg7 mi
10:53 AM54 °FLight rain. Fog.6 mph93%29.91 "Hg3 mi
9:53 AM54 °FLight rain. Fog.8 mph93%29.90 "Hg4 mi
8:53 AM55 °FLight rain. Fog.7 mph93%29.88 "Hg6 mi
8:01 AM56 °FLight rain. Fog.12 mph93%29.87 "Hg3 mi
7:53 AM59 °FHeavy rain. Fog.14 mph96%29.86 "Hg2 mi
7:02 AM59 °FLight rain. Fog.3 mph96%29.85 "Hg4 mi
6:53 AM59 °FRain. Fog.No wind96%29.85 "Hg4 mi
6:03 AM60 °FLight rain. Mostly cloudy.6 mph93%29.86 "Hg9 mi
4:53 AM58 °FOvercast.6 mph93%29.87 "Hg10 mi
4:01 AM57 °FLight rain. Fog.6 mph96%29.88 "Hg6 mi
3:53 AM57 °FMostly cloudy.6 mph96%29.88 "Hg8 mi
3:02 AM56 °FLight rain. Fog.7 mph93%29.90 "Hg2 mi
1:53 AM54 °FLight rain. Fog.3 mph93%29.90 "Hg5 mi
12:57 AM50 °FRain. Fog.5 mph96%29.92 "Hg3 mi
11:53 PM
Mon, Nov 30
50 °FRain. Fog.3 mph93%29.95 "Hg3 mi
11:03 PM49 °FHeavy rain. Fog.5 mph97%29.95 "Hg2 mi
9:53 PM49 °FRain. Fog.No wind97%29.98 "Hg2 mi
Weather by CustomWeather, © 2015

See weather overviewHow to use our weather pages